Flag for U.S.A. Weather past 2 weeks in Dayton, Ohio, U.S.A.

Now
70 °F

Sunny.


Feels Like: 74 °F
Forecast: 64 / 87 °F
Wind: 8 mph from Southeast

Location: Dayton / Wright-Patterson Air Force Base

Current Time: Aug 29, 2014 at 10:24:22 AM

Latest Report: Aug 29, 2014 at 9:58 AM


Visibility: 7 mi

Pressure: 30.11 "Hg

Humidity: 69%

Dew point: 59 °F

Location of DaytonLocation

Historic Weather in Dayton — Graph

°F

Dayton temperature yesterday

Maximum temperature yesterday: 80 °F (at 4:58 PM)
Minimum temperature yesterday: 64 °F (at 6:58 AM)
Average temperature yesterday: 72 °F

Past Weeks' High & Low Weather Summary

 TemperatureHumidityPressure
High89 °F (Aug 19, 4:58 PM)100% (Aug 17, 6:58 AM)30.15 "Hg (Aug 17, 6:58 AM)
Low49 °F (Aug 16, 4:58 AM)27% (Aug 15, 4:58 PM)29.79 "Hg (Aug 19, 4:58 PM)
Average74 °F77%30.00 "Hg
* Reported Aug 14 8:58 AM — Aug 29 8:58 AM, Dayton, Weather by CustomWeather, © 2014

Note: Actual official high and low records may vary slightly from our data, if they occured in-between our weather recording intervals... More about our weather records

Advertising

Dayton weather history for previous 24 hours

 ConditionsComfort  
Time TempWeatherWind HumidityBarometerVisibility
8:58 AM
Aug 29
67 °FSunny.8 mph72%30.11 "Hg7 mi
7:58 AM63 °FClear.5 mph81%30.11 "Hg8 mi
6:58 AM63 °FClear.3 mph83%30.11 "Hg9 mi
5:58 AM63 °FClear.6 mph83%30.09 "Hg10 mi
4:58 AM63 °FClear.6 mph83%30.09 "Hg10 mi
3:58 AM64 °FClear.5 mph84%30.09 "Hg9 mi
2:58 AM65 °FClear.6 mph82%30.09 "Hg10 mi
1:58 AM66 °FClear.5 mph82%30.10 "Hg10 mi
12:58 AM67 °FClear.3 mph77%30.10 "Hg10 mi
11:58 PM
Aug 28
68 °FClear.6 mph77%30.11 "Hg10 mi
10:58 PM69 °FClear.5 mph76%30.11 "Hg10 mi
9:58 PM70 °FClear.7 mph76%30.11 "Hg10 mi
8:58 PM72 °FSunny.8 mph73%30.10 "Hg10 mi
7:58 PM76 °FSunny.9 mph66%30.08 "Hg10 mi
6:58 PM79 °FPassing clouds.7 mph54%30.06 "Hg10 mi
5:58 PM80 °FPassing clouds.8 mph53%30.06 "Hg10 mi
4:58 PM80 °FPassing clouds.7 mph53%30.07 "Hg10 mi
3:58 PM80 °FPassing clouds.7 mph53%30.07 "Hg10 mi
2:58 PM79 °FPassing clouds.5 mph55%30.09 "Hg10 mi
1:58 PM77 °FSunny.5 mph60%30.10 "Hg10 mi
12:58 PM77 °FSunny.6 mph62%30.11 "Hg10 mi
11:58 AM75 °FSunny.6 mph64%30.12 "Hg10 mi
10:58 AM74 °FSunny.10 mph66%30.12 "Hg10 mi
Weather by CustomWeather, © 2014

See weather overviewHow to use our weather pages